English version Home page |
Updated on March 6, 2011 |
|
軌道要素The following orbital elements are taken from MPC 72851: Epoch 2010 May 4.0 TT = JDT 2455320.5 T 2010 May 1.7261 TT MPC q 6.907123 (2000.0) P Q z +0.000142 Peri. 121.3333 +0.2140556 +0.9727006 +/-0.000004 Node 199.5840 +0.7805164 -0.1151442 e 0.999023 Incl. 164.4900 +0.5873452 -0.2014831 From 89 observations 2008 Dec. 22-2010 Nov. 8, mean residual 0".5.
|
光度変化m1 = 7.0 + 5 logΔ + 10.0 log r
|
軌道要素はMPCのEphemerides and Orbital Elementsに掲載されたものです。
|